Total_Precipitation_Accumulation
1.44 1.45 1.41 1.44 1.54 1.52 1.45 1.46 1.51 1.51 1.50 1.58 1.71 1.83 1.90 1.94 1.96 1.97 1.92 1.89 1.89 1.86 1.80 1.75 1.71 1.68 1.72 1.68 1.67 1.73 1.80 1.88 1.83 1.34 1.09 1.08 1.18 1.22 1.24 1.15 1.08 1.09 1.11
1.31 1.40 1.33 1.30 1.44 1.49 1.40 1.34 1.37 1.40 1.31 1.32 1.39 1.48 1.55 1.61 1.64 1.69 1.72 1.71 1.71 1.72 1.69 1.68 1.64 1.62 1.61 1.62 1.67 1.69 1.71 1.73 1.77 1.56 1.25 1.14 1.14 1.13 1.15 1.14 1.08 1.03 0.98
1.21 1.26 1.23 1.20 1.26 1.32 1.35 1.33 1.30 1.35 1.31 1.23 1.20 1.25 1.29 1.34 1.39 1.41 1.44 1.48 1.49 1.50 1.54 1.58 1.57 1.62 1.66 1.61 1.59 1.57 1.53 1.53 1.57 1.57 1.35 1.14 1.08 1.06 1.11 1.11 1.05 1.00 0.93
1.11 1.11 1.08 1.09 1.09 1.10 1.14 1.18 1.17 1.17 1.22 1.25 1.15 1.08 1.11 1.17 1.23 1.29 1.32 1.34 1.37 1.41 1.44 1.47 1.49 1.53 1.54 1.55 1.59 1.57 1.52 1.51 1.50 1.53 1.44 1.28 1.19 1.14 1.18 1.20 1.18 1.08 1.03
1.06 1.09 1.07 1.03 0.99 0.98 1.00 0.98 0.99 1.02 1.08 1.15 1.15 1.08 1.04 1.06 1.12 1.18 1.22 1.27 1.28 1.33 1.35 1.37 1.43 1.55 1.60 1.58 1.56 1.55 1.59 1.69 1.69 1.69 1.58 1.38 1.22 1.16 1.15 1.09 1.14 1.14 1.12
0.94 1.01 1.03 1.02 0.97 0.95 0.93 0.92 0.90 0.93 1.00 1.08 1.13 1.14 1.13 1.14 1.36 1.36 1.27 1.26 1.28 1.29 1.29 1.26 1.28 1.36 1.38 1.45 1.49 1.48 1.58 1.74 1.86 1.85 1.66 1.37 1.11 0.98 0.97 1.04 1.17 1.27 1.22
0.76 0.84 0.90 0.91 0.93 0.92 0.91 0.95 1.00 1.02 1.05 1.13 1.19 1.23 1.23 1.30 1.44 1.37 1.35 1.23 1.21 1.22 1.20 1.18 1.15 1.14 1.19 1.10 1.20 1.28 1.32 1.47 1.57 1.51 1.43 1.18 1.02 0.97 1.10 1.23 1.21 1.21 1.06
0.79 0.82 0.82 0.86 0.91 0.94 1.01 1.08 1.17 1.23 1.24 1.30 1.37 1.39 1.39 1.40 1.42 1.35 1.37 1.18 1.09 1.05 1.00 0.95 0.94 0.91 0.94 1.02 1.08 1.16 1.09 1.06 1.09 1.07 1.06 1.01 0.99 1.03 1.22 1.41 1.43 1.41 1.19
0.82 0.88 0.89 0.96 1.04 1.09 1.18 1.25 1.28 1.36 1.35 1.31 1.31 1.31 1.29 1.27 1.27 1.22 1.21 1.07 1.00 0.93 0.85 0.80 0.80 0.78 0.93 1.10 1.12 1.16 1.01 0.90 0.98 1.08 1.16 1.18 1.29 1.32 1.36 1.59 1.75 1.83 1.60
0.92 1.02 1.03 1.06 1.12 1.15 1.18 1.16 1.14 1.14 1.12 1.07 1.04 1.01 0.99 0.96 1.00 1.01 1.04 0.98 0.94 0.84 0.77 0.74 0.82 0.82 0.98 1.11 1.06 1.09 1.05 0.88 0.88 0.97 1.02 1.07 1.07 1.15 1.30 1.31 1.50 1.83 1.69
1.03 1.09 1.07 1.03 1.05 1.03 0.98 0.92 0.86 0.82 0.78 0.76 0.75 0.73 0.70 0.70 0.74 0.79 0.89 0.93 0.98 0.93 0.83 0.75 0.73 0.90 1.01 1.09 1.07 0.99 1.04 1.06 1.06 1.08 1.05 1.02 1.04 1.08 1.12 1.10 1.19 1.60 1.87
0.94 0.92 0.87 0.77 0.74 0.71 0.70 0.71 0.69 0.67 0.68 0.67 0.64 0.63 0.58 0.56 0.61 0.66 0.76 0.88 0.96 0.98 0.90 0.77 0.77 0.95 1.00 1.01 1.00 1.03 1.13 1.14 1.06 1.14 1.19 1.14 1.07 1.01 0.98 1.00 1.04 1.15 1.32
0.66 0.66 0.64 0.60 0.58 0.58 0.59 0.62 0.65 0.64 0.66 0.65 0.63 0.65 0.63 0.57 0.60 0.69 0.74 0.84 0.93 0.91 0.87 0.90 0.94 0.98 0.95 0.90 0.94 1.03 1.04 0.99 1.02 1.11 1.11 1.05 1.00 0.98 1.00 1.07 1.12 1.16 1.20
0.54 0.57 0.59 0.59 0.56 0.56 0.58 0.59 0.64 0.68 0.70 0.68 0.67 0.67 0.65 0.62 0.62 0.68 0.78 0.85 0.91 0.93 0.92 0.91 0.89 0.88 0.90 0.89 0.88 0.89 0.91 0.97 1.08 1.11 1.07 1.03 1.04 1.11 1.17 1.19 1.25 1.26 1.36
0.54 0.58 0.62 0.64 0.62 0.60 0.60 0.62 0.67 0.72 0.81 0.90 0.87 0.82 0.82 0.78 0.73 0.88 0.98 0.99 1.01 1.05 1.08 0.99 0.88 0.84 0.87 0.86 0.83 0.83 0.88 0.98 1.09 1.08 1.13 1.17 1.17 1.19 1.19 1.20 1.31 1.37 1.41
0.57 0.58 0.61 0.65 0.66 0.65 0.61 0.61 0.66 0.70 0.75 0.79 0.81 0.84 0.81 0.83 0.86 0.92 0.95 0.99 1.06 1.14 1.19 1.04 0.88 0.83 0.84 0.84 0.85 0.87 0.89 0.96 1.04 1.14 1.22 1.27 1.30 1.29 1.25 1.20 1.28 1.41 1.40
0.63 0.63 0.63 0.65 0.68 0.69 0.66 0.64 0.66 0.69 0.73 0.73 0.74 0.77 0.80 0.85 0.88 0.89 0.93 0.98 1.05 1.13 1.11 0.93 0.81 0.78 0.79 0.82 0.88 0.91 0.92 0.92 1.03 1.20 1.31 1.37 1.41 1.39 1.36 1.33 1.30 1.33 1.30
0.60 0.63 0.66 0.66 0.70 0.75 0.76 0.73 0.70 0.69 0.69 0.67 0.69 0.76 0.80 0.83 0.86 0.88 0.94 1.00 1.01 0.99 0.92 0.87 0.84 0.83 0.86 0.91 0.94 0.98 1.00 1.03 1.09 1.17 1.27 1.37 1.49 1.55 1.49 1.39 1.34 1.35 1.36
0.59 0.64 0.66 0.67 0.71 0.76 0.80 0.82 0.79 0.74 0.72 0.69 0.65 0.71 0.81 0.87 0.90 0.92 0.93 0.91 0.88 0.84 0.82 0.83 0.86 0.91 0.96 1.00 1.02 1.05 1.10 1.14 1.15 1.22 1.25 1.33 1.47 1.62 1.55 1.38 1.39 1.39 1.46
0.58 0.70 0.75 0.75 0.75 0.78 0.79 0.81 0.82 0.79 0.76 0.71 0.70 0.76 0.85 0.93 0.89 0.85 0.86 0.85 0.82 0.79 0.79 0.86 0.91 0.99 1.07 1.13 1.15 1.16 1.17 1.15 1.18 1.26 1.27 1.30 1.38 1.54 1.58 1.48 1.47 1.50 1.43
0.56 0.63 0.72 0.70 0.71 0.76 0.79 0.82 0.85 0.85 0.80 0.74 0.73 0.82 1.02 1.07 0.95 0.85 0.85 0.90 0.92 0.90 0.90 0.93 0.95 1.02 1.10 1.17 1.20 1.20 1.18 1.13 1.14 1.28 1.34 1.36 1.41 1.47 1.43 1.50 1.51 1.52 1.53
0.53 0.57 0.62 0.67 0.70 0.76 0.84 0.84 0.84 0.84 0.81 0.77 0.73 0.78 0.91 0.89 0.83 0.81 0.83 0.88 0.91 0.95 0.99 1.07 1.06 1.00 1.11 1.27 1.36 1.38 1.26 1.11 1.09 1.24 1.35 1.36 1.40 1.46 1.50 1.57 1.55 1.55 1.54
0.52 0.55 0.58 0.61 0.67 0.74 0.77 0.75 0.77 0.79 0.80 0.78 0.77 0.77 0.79 0.79 0.77 0.77 0.80 0.84 0.88 0.90 0.93 1.02 1.08 1.00 0.99 1.14 1.32 1.58 1.62 1.35 1.23 1.40 1.68 1.68 1.57 1.57 1.62 1.60 1.49 1.49 1.42
0.51 0.54 0.57 0.60 0.64 0.69 0.72 0.72 0.71 0.73 0.74 0.75 0.76 0.77 0.78 0.79 0.79 0.78 0.80 0.83 0.86 0.87 0.89 0.97 1.01 1.00 1.00 1.10 1.20 1.30 1.44 1.57 1.86 2.06 2.16 2.19 1.89 1.62 1.58 1.54 1.42 1.39 1.38
0.50 0.54 0.58 0.63 0.67 0.68 0.69 0.69 0.68 0.68 0.70 0.71 0.73 0.74 0.75 0.76 0.76 0.76 0.77 0.80 0.82 0.83 0.82 0.87 0.95 0.98 0.98 1.02 1.08 1.14 1.25 1.52 1.92 2.21 2.23 2.11 1.84 1.60 1.56 1.52 1.43 1.40 1.38
0.54 0.56 0.60 0.64 0.67 0.68 0.69 0.68 0.65 0.65 0.68 0.68 0.68 0.69 0.71 0.72 0.71 0.72 0.74 0.76 0.78 0.77 0.76 0.78 0.83 0.91 0.94 0.94 0.92 1.02 1.22 1.37 1.45 1.57 1.93 2.08 1.88 1.60 1.55 1.60 1.47 1.42 1.39